Year,Month,Day,Hour,Minute,Value (Times are PST for temperature in C)
2010,06,12,00,00,9.90
2010,06,12,00,01,9.80
2010,06,12,00,02,9.80
2010,06,12,00,03,9.90
2010,06,12,00,04,9.90
2010,06,12,00,05,9.90
2010,06,12,00,06,9.90
2010,06,12,00,07,9.90
2010,06,12,00,08,9.90
2010,06,12,00,09,9.90
2010,06,12,00,10,9.80
2010,06,12,00,11,9.80
2010,06,12,00,12,9.80
2010,06,12,00,13,9.80
2010,06,12,00,14,9.80
2010,06,12,00,15,9.80
2010,06,12,00,16,9.80
2010,06,12,00,17,9.70
2010,06,12,00,18,9.70
2010,06,12,00,19,9.70
2010,06,12,00,20,9.70
2010,06,12,00,21,9.70
2010,06,12,00,22,9.70
2010,06,12,00,23,9.60
2010,06,12,00,24,9.60
2010,06,12,00,25,9.60
2010,06,12,00,26,9.60
2010,06,12,00,27,9.60
2010,06,12,00,28,9.60
2010,06,12,00,29,9.60
2010,06,12,00,30,9.60
2010,06,12,00,31,9.60
2010,06,12,00,32,9.60
2010,06,12,00,33,9.60
2010,06,12,00,34,9.60
2010,06,12,00,35,9.60
2010,06,12,00,36,9.60
2010,06,12,00,37,9.60
2010,06,12,00,38,9.60
2010,06,12,00,39,9.60
2010,06,12,00,40,9.60
2010,06,12,00,41,9.60
2010,06,12,00,42,9.60
2010,06,12,00,43,9.60
2010,06,12,00,44,9.60
2010,06,12,00,45,9.60
2010,06,12,00,46,9.50
2010,06,12,00,47,9.50
2010,06,12,00,48,9.50
2010,06,12,00,49,9.40
2010,06,12,00,50,9.40
2010,06,12,00,51,9.40
2010,06,12,00,52,9.40
2010,06,12,00,53,9.40
2010,06,12,00,54,9.40
2010,06,12,00,55,9.40
2010,06,12,00,56,9.40
2010,06,12,00,57,9.40
2010,06,12,00,58,9.40
2010,06,12,00,59,9.40
2010,06,12,01,00,9.40
2010,06,12,01,01,9.40
2010,06,12,01,02,9.40
2010,06,12,01,03,9.40
2010,06,12,01,04,9.40
2010,06,12,01,05,9.40
2010,06,12,01,06,9.40
2010,06,12,01,07,9.40
2010,06,12,01,08,9.40
2010,06,12,01,09,9.40
2010,06,12,01,10,9.40
2010,06,12,01,11,9.40
2010,06,12,01,12,9.30
2010,06,12,01,13,9.30
2010,06,12,01,14,9.30
2010,06,12,01,15,9.30
2010,06,12,01,16,9.30
2010,06,12,01,17,9.30
2010,06,12,01,18,9.30
2010,06,12,01,19,9.20
2010,06,12,01,20,9.20
2010,06,12,01,21,9.20
2010,06,12,01,22,9.20
2010,06,12,01,23,9.20
2010,06,12,01,24,9.20
2010,06,12,01,25,9.10
2010,06,12,01,26,9.10
2010,06,12,01,27,9.10
2010,06,12,01,28,9.10
2010,06,12,01,29,9.20
2010,06,12,01,30,9.20
2010,06,12,01,31,9.20
2010,06,12,01,32,9.20
2010,06,12,01,33,9.20
2010,06,12,01,34,9.20
2010,06,12,01,35,9.20
2010,06,12,01,36,9.20
2010,06,12,01,37,9.20
2010,06,12,01,38,9.20
2010,06,12,01,39,9.20
2010,06,12,01,40,9.20
2010,06,12,01,41,9.20
2010,06,12,01,42,9.20
2010,06,12,01,43,9.20
2010,06,12,01,44,9.20
2010,06,12,01,45,9.20
2010,06,12,01,46,9.20
2010,06,12,01,47,9.20
2010,06,12,01,48,9.20
2010,06,12,01,49,9.10
2010,06,12,01,50,9.10
2010,06,12,01,51,9.10
2010,06,12,01,52,9.10
2010,06,12,01,53,9.10
2010,06,12,01,54,9.10
2010,06,12,01,55,9.00
2010,06,12,01,56,9.00
2010,06,12,01,57,9.00
2010,06,12,01,58,9.00
2010,06,12,01,59,9.00
2010,06,12,02,00,9.00
2010,06,12,02,01,8.90
2010,06,12,02,02,8.90
2010,06,12,02,03,8.90
2010,06,12,02,04,8.90
2010,06,12,02,05,8.80
2010,06,12,02,06,8.80
2010,06,12,02,07,8.80
2010,06,12,02,08,8.80
2010,06,12,02,09,8.90
2010,06,12,02,10,8.90
2010,06,12,02,11,8.90
2010,06,12,02,12,8.80
2010,06,12,02,13,8.80
2010,06,12,02,14,8.80
2010,06,12,02,15,8.80
2010,06,12,02,16,8.80
2010,06,12,02,17,8.80
2010,06,12,02,18,8.80
2010,06,12,02,19,8.80
2010,06,12,02,20,8.80
2010,06,12,02,21,8.80
2010,06,12,02,22,8.80
2010,06,12,02,23,8.80
2010,06,12,02,24,8.80
2010,06,12,02,25,8.80
2010,06,12,02,26,8.80
2010,06,12,02,27,8.80
2010,06,12,02,28,8.80
2010,06,12,02,29,8.90
2010,06,12,02,30,8.90
2010,06,12,02,31,8.90
2010,06,12,02,32,8.90
2010,06,12,02,33,8.90
2010,06,12,02,34,8.90
2010,06,12,02,35,8.80
2010,06,12,02,36,8.80
2010,06,12,02,37,8.80
2010,06,12,02,38,8.80
2010,06,12,02,39,8.70
2010,06,12,02,40,8.70
2010,06,12,02,41,8.70
2010,06,12,02,42,8.70
2010,06,12,02,43,8.70
2010,06,12,02,44,8.60
2010,06,12,02,45,8.60
2010,06,12,02,46,8.60
2010,06,12,02,47,8.60
2010,06,12,02,48,8.60
2010,06,12,02,49,8.60
2010,06,12,02,50,8.60
2010,06,12,02,51,8.60
2010,06,12,02,52,8.60
2010,06,12,02,53,8.60
2010,06,12,02,54,8.60
2010,06,12,02,55,8.60
2010,06,12,02,56,8.60
2010,06,12,02,57,8.60
2010,06,12,02,58,8.60
2010,06,12,02,59,8.60
2010,06,12,03,00,8.60
2010,06,12,03,01,8.60
2010,06,12,03,02,8.60
2010,06,12,03,03,8.60
2010,06,12,03,04,8.60
2010,06,12,03,05,8.60
2010,06,12,03,06,8.60
2010,06,12,03,07,8.60
2010,06,12,03,08,8.60
2010,06,12,03,09,8.60
2010,06,12,03,10,8.60
2010,06,12,03,11,8.50
2010,06,12,03,12,8.50
2010,06,12,03,13,8.40
2010,06,12,03,14,8.40
2010,06,12,03,15,8.40
2010,06,12,03,16,8.40
2010,06,12,03,17,8.40
2010,06,12,03,18,8.40
2010,06,12,03,19,8.40
2010,06,12,03,20,8.40
2010,06,12,03,21,8.40
2010,06,12,03,22,8.40
2010,06,12,03,23,8.30
2010,06,12,03,24,8.30
2010,06,12,03,25,8.30
2010,06,12,03,26,8.30
2010,06,12,03,27,8.30
2010,06,12,03,28,8.30
2010,06,12,03,29,8.30
2010,06,12,03,30,8.30
2010,06,12,03,31,8.30
2010,06,12,03,32,8.30
2010,06,12,03,33,8.30
2010,06,12,03,34,8.30
2010,06,12,03,35,8.30
2010,06,12,03,36,8.30
2010,06,12,03,37,8.30
2010,06,12,03,38,8.30
2010,06,12,03,39,8.30
2010,06,12,03,40,8.30
2010,06,12,03,41,8.30
2010,06,12,03,42,8.30
2010,06,12,03,43,8.30
2010,06,12,03,44,8.30
2010,06,12,03,45,8.30
2010,06,12,03,46,8.30
2010,06,12,03,47,8.30
2010,06,12,03,48,8.30
2010,06,12,03,49,8.20
2010,06,12,03,50,8.20
2010,06,12,03,51,8.20
2010,06,12,03,52,8.20
2010,06,12,03,53,8.20
2010,06,12,03,54,8.20
2010,06,12,03,55,8.20
2010,06,12,03,56,8.20
2010,06,12,03,57,8.20
2010,06,12,03,58,8.20
2010,06,12,03,59,8.20
2010,06,12,04,00,8.20
2010,06,12,04,01,8.20
2010,06,12,04,02,8.20
2010,06,12,04,03,8.20
2010,06,12,04,04,8.20
2010,06,12,04,05,8.20
2010,06,12,04,06,8.10
2010,06,12,04,07,8.10
2010,06,12,04,08,8.10
2010,06,12,04,09,8.10
2010,06,12,04,10,8.10
2010,06,12,04,11,8.20
2010,06,12,04,12,8.20
2010,06,12,04,13,8.20
2010,06,12,04,14,8.10
2010,06,12,04,15,8.10
2010,06,12,04,16,8.10
2010,06,12,04,17,8.10
2010,06,12,04,18,8.00
2010,06,12,04,19,8.00
2010,06,12,04,20,8.00
2010,06,12,04,21,8.00
2010,06,12,04,22,8.00
2010,06,12,04,23,8.10
2010,06,12,04,24,8.10
2010,06,12,04,25,8.10
2010,06,12,04,26,8.10
2010,06,12,04,27,8.10
2010,06,12,04,28,8.10
2010,06,12,04,29,8.10
2010,06,12,04,30,8.10
2010,06,12,04,31,8.10
2010,06,12,04,32,8.10
2010,06,12,04,33,8.10
2010,06,12,04,34,8.10
2010,06,12,04,35,8.10
2010,06,12,04,36,8.10
2010,06,12,04,37,8.10
2010,06,12,04,38,8.10
2010,06,12,04,39,8.10
2010,06,12,04,40,8.10
2010,06,12,04,41,8.10
2010,06,12,04,42,8.10
2010,06,12,04,43,8.10
2010,06,12,04,44,8.10
2010,06,12,04,45,8.10
2010,06,12,04,46,8.10
2010,06,12,04,47,8.10
2010,06,12,04,48,8.10
2010,06,12,04,49,8.10
2010,06,12,04,50,8.10
2010,06,12,04,51,8.10
2010,06,12,04,52,8.10
2010,06,12,04,53,8.10
2010,06,12,04,54,8.10
2010,06,12,04,55,8.10
2010,06,12,04,56,8.10
2010,06,12,04,57,8.10
2010,06,12,04,58,8.10
2010,06,12,04,59,8.10
2010,06,12,05,00,8.10
2010,06,12,05,01,8.10
2010,06,12,05,02,8.10
2010,06,12,05,03,8.00
2010,06,12,05,04,8.00
2010,06,12,05,05,8.00
2010,06,12,05,06,7.90
2010,06,12,05,07,7.90
2010,06,12,05,08,7.90
2010,06,12,05,09,7.90
2010,06,12,05,10,7.90
2010,06,12,05,11,7.90
2010,06,12,05,12,7.90
2010,06,12,05,13,7.90
2010,06,12,05,14,7.80
2010,06,12,05,15,7.80
2010,06,12,05,16,7.80
2010,06,12,05,17,7.80
2010,06,12,05,18,7.80
2010,06,12,05,19,7.80
2010,06,12,05,20,7.80
2010,06,12,05,21,7.80
2010,06,12,05,22,7.80
2010,06,12,05,23,7.80
2010,06,12,05,24,7.70
2010,06,12,05,25,7.70
2010,06,12,05,26,7.70
2010,06,12,05,27,7.70
2010,06,12,05,28,7.70
2010,06,12,05,29,7.70
2010,06,12,05,30,7.70
2010,06,12,05,31,7.70
2010,06,12,05,32,7.70
2010,06,12,05,33,7.70
2010,06,12,05,34,7.70
2010,06,12,05,35,7.70
2010,06,12,05,36,7.70
2010,06,12,05,37,7.70
2010,06,12,05,38,7.70
2010,06,12,05,39,7.70
2010,06,12,05,40,7.70
2010,06,12,05,41,7.70
2010,06,12,05,42,7.70
2010,06,12,05,43,7.70
2010,06,12,05,44,7.70
2010,06,12,05,45,7.70
2010,06,12,05,46,7.70
2010,06,12,05,47,7.70
2010,06,12,05,48,7.70
2010,06,12,05,49,7.70
2010,06,12,05,50,7.70
2010,06,12,05,51,7.70
2010,06,12,05,52,7.70
2010,06,12,05,53,7.70
2010,06,12,05,54,7.70
2010,06,12,05,55,7.70
2010,06,12,05,56,7.70
2010,06,12,05,57,7.70
2010,06,12,05,58,7.70
2010,06,12,05,59,7.70
2010,06,12,06,00,7.70
2010,06,12,06,01,7.70
2010,06,12,06,02,7.70
2010,06,12,06,03,7.70
2010,06,12,06,04,7.70
2010,06,12,06,05,7.70
2010,06,12,06,06,7.70
2010,06,12,06,07,7.70
2010,06,12,06,08,7.70
2010,06,12,06,09,7.80
2010,06,12,06,10,7.80
2010,06,12,06,11,7.80
2010,06,12,06,12,7.80
2010,06,12,06,13,7.80
2010,06,12,06,14,7.80
2010,06,12,06,15,7.80
2010,06,12,06,16,7.80
2010,06,12,06,17,7.80
2010,06,12,06,18,7.90
2010,06,12,06,19,7.90
2010,06,12,06,20,7.90
2010,06,12,06,21,7.90
2010,06,12,06,22,7.90
2010,06,12,06,23,8.00
2010,06,12,06,24,8.00
2010,06,12,06,25,8.00
2010,06,12,06,26,8.10
2010,06,12,06,27,8.10
2010,06,12,06,28,8.10
2010,06,12,06,29,8.10
2010,06,12,06,30,8.10
2010,06,12,06,31,8.10
2010,06,12,06,32,8.20
2010,06,12,06,33,8.20
2010,06,12,06,34,8.20
2010,06,12,06,35,8.20
2010,06,12,06,36,8.20
2010,06,12,06,37,8.20
2010,06,12,06,38,8.20
2010,06,12,06,39,8.20
2010,06,12,06,40,8.20
2010,06,12,06,41,8.20
2010,06,12,06,42,8.20
2010,06,12,06,43,8.20
2010,06,12,06,44,8.20
2010,06,12,06,45,8.20
2010,06,12,06,46,8.20
2010,06,12,06,47,8.20
2010,06,12,06,48,8.30
2010,06,12,06,49,8.30
2010,06,12,06,50,8.30
2010,06,12,06,51,8.30
2010,06,12,06,52,8.30
2010,06,12,06,53,8.30
2010,06,12,06,54,8.40
2010,06,12,06,55,8.40
2010,06,12,06,56,8.40
2010,06,12,06,57,8.40
2010,06,12,06,58,8.40
2010,06,12,06,59,8.40
2010,06,12,07,00,8.50
2010,06,12,07,01,8.50
2010,06,12,07,02,8.50
2010,06,12,07,03,8.60
2010,06,12,07,04,8.60
2010,06,12,07,05,8.60
2010,06,12,07,06,8.60
2010,06,12,07,07,8.70
2010,06,12,07,08,8.70
2010,06,12,07,09,8.70
2010,06,12,07,10,8.80
2010,06,12,07,11,8.80
2010,06,12,07,12,8.80
2010,06,12,07,13,8.90
2010,06,12,07,14,8.90
2010,06,12,07,15,8.90
2010,06,12,07,16,9.00
2010,06,12,07,17,9.00
2010,06,12,07,18,9.10
2010,06,12,07,19,9.10
2010,06,12,07,20,9.20
2010,06,12,07,21,9.20
2010,06,12,07,22,9.20
2010,06,12,07,23,9.30
2010,06,12,07,24,9.30
2010,06,12,07,25,9.40
2010,06,12,07,26,9.40
2010,06,12,07,27,9.40
2010,06,12,07,28,9.50
2010,06,12,07,29,9.50
2010,06,12,07,30,9.60
2010,06,12,07,31,9.60
2010,06,12,07,32,9.60
2010,06,12,07,33,9.60
2010,06,12,07,34,9.60
2010,06,12,07,35,9.70
2010,06,12,07,36,9.70
2010,06,12,07,37,9.80
2010,06,12,07,38,9.80
2010,06,12,07,39,9.90
2010,06,12,07,40,9.90
2010,06,12,07,41,10.00
2010,06,12,07,42,10.00
2010,06,12,07,43,10.10
2010,06,12,07,44,10.10
2010,06,12,07,45,10.10
2010,06,12,07,46,10.10
2010,06,12,07,47,10.10
2010,06,12,07,48,10.10
2010,06,12,07,49,10.10
2010,06,12,07,50,10.10
2010,06,12,07,51,10.10
2010,06,12,07,52,10.10
2010,06,12,07,53,10.10
2010,06,12,07,54,10.10
2010,06,12,07,55,10.20
2010,06,12,07,56,10.20
2010,06,12,07,57,10.20
2010,06,12,07,58,10.30
2010,06,12,07,59,10.30
2010,06,12,08,00,10.30
2010,06,12,08,01,10.30
2010,06,12,08,02,10.30
2010,06,12,08,03,10.30
2010,06,12,08,04,10.30
2010,06,12,08,05,10.30
2010,06,12,08,06,10.30
2010,06,12,08,07,10.30
2010,06,12,08,08,10.30
2010,06,12,08,09,10.40
2010,06,12,08,10,10.40
2010,06,12,08,11,10.40
2010,06,12,08,12,10.40
2010,06,12,08,13,10.40
2010,06,12,08,14,10.40
2010,06,12,08,15,10.50
2010,06,12,08,16,10.50
2010,06,12,08,17,10.60
2010,06,12,08,18,10.60
2010,06,12,08,19,10.60
2010,06,12,08,20,10.70
2010,06,12,08,21,10.70
2010,06,12,08,22,10.70
2010,06,12,08,23,10.80
2010,06,12,08,24,10.80
2010,06,12,08,25,10.80
2010,06,12,08,26,10.80
2010,06,12,08,27,10.90
2010,06,12,08,28,10.90
2010,06,12,08,29,11.00
2010,06,12,08,30,11.00
2010,06,12,08,31,11.00
2010,06,12,08,32,11.10
2010,06,12,08,33,11.10
2010,06,12,08,34,11.10
2010,06,12,08,35,11.20
2010,06,12,08,36,11.20
2010,06,12,08,37,11.30
2010,06,12,08,38,11.30
2010,06,12,08,39,11.40
2010,06,12,08,40,11.40
2010,06,12,08,41,11.50
2010,06,12,08,42,11.50
2010,06,12,08,43,11.50
2010,06,12,08,44,11.60
2010,06,12,08,45,11.60
2010,06,12,08,46,11.60
2010,06,12,08,47,11.70
2010,06,12,08,48,11.70
2010,06,12,08,49,11.80
2010,06,12,08,50,11.80
2010,06,12,08,51,11.80
2010,06,12,08,52,11.90
2010,06,12,08,53,11.90
2010,06,12,08,54,12.00
2010,06,12,08,55,12.00
2010,06,12,08,56,12.10
2010,06,12,08,57,12.10
2010,06,12,08,58,12.20
2010,06,12,08,59,12.30
2010,06,12,09,00,12.30
2010,06,12,09,01,12.40
2010,06,12,09,02,12.40
2010,06,12,09,03,12.50
2010,06,12,09,04,12.60
2010,06,12,09,05,12.70
2010,06,12,09,06,12.70
2010,06,12,09,07,12.80
2010,06,12,09,08,12.90
2010,06,12,09,09,12.90
2010,06,12,09,10,13.00
2010,06,12,09,11,13.10
2010,06,12,09,12,13.20
2010,06,12,09,13,13.20
2010,06,12,09,14,13.30
2010,06,12,09,15,13.30
2010,06,12,09,16,13.40
2010,06,12,09,17,13.40
2010,06,12,09,18,13.50
2010,06,12,09,19,13.60
2010,06,12,09,20,13.60
2010,06,12,09,21,13.70
2010,06,12,09,22,13.70
2010,06,12,09,23,13.70
2010,06,12,09,24,13.80
2010,06,12,09,25,13.80
2010,06,12,09,26,13.90
2010,06,12,09,27,13.90
2010,06,12,09,28,14.00
2010,06,12,09,29,14.00
2010,06,12,09,30,14.10
2010,06,12,09,31,14.10
2010,06,12,09,32,14.10
2010,06,12,09,33,14.10
2010,06,12,09,34,14.10
2010,06,12,09,35,14.10
2010,06,12,09,36,14.10
2010,06,12,09,37,14.10
2010,06,12,09,38,14.10
2010,06,12,09,39,14.10
2010,06,12,09,40,14.10
2010,06,12,09,41,14.20
2010,06,12,09,42,14.20
2010,06,12,09,43,14.20
2010,06,12,09,44,14.30
2010,06,12,09,45,14.30
2010,06,12,09,46,14.40
2010,06,12,09,47,14.50
2010,06,12,09,48,14.60
2010,06,12,09,49,14.80
2010,06,12,09,50,14.90
2010,06,12,09,51,15.00
2010,06,12,09,52,15.00
2010,06,12,09,53,15.10
2010,06,12,09,54,15.20
2010,06,12,09,55,15.30
2010,06,12,09,56,15.40
2010,06,12,09,57,15.50
2010,06,12,09,58,15.60
2010,06,12,09,59,15.60
2010,06,12,10,00,15.60
2010,06,12,10,01,15.60
2010,06,12,10,02,15.60
2010,06,12,10,03,15.70
2010,06,12,10,04,15.80
2010,06,12,10,05,15.80
2010,06,12,10,06,15.80
2010,06,12,10,07,15.80
2010,06,12,10,08,15.90
2010,06,12,10,09,15.90
2010,06,12,10,10,16.00
2010,06,12,10,11,16.00
2010,06,12,10,12,16.10
2010,06,12,10,13,16.10
2010,06,12,10,14,16.20
2010,06,12,10,15,16.20
2010,06,12,10,16,16.20
2010,06,12,10,17,16.20
2010,06,12,10,18,16.20
2010,06,12,10,19,16.20
2010,06,12,10,20,16.30
2010,06,12,10,21,16.30
2010,06,12,10,22,16.30
2010,06,12,10,23,16.40
2010,06,12,10,24,16.40
2010,06,12,10,25,16.40
2010,06,12,10,26,16.50
2010,06,12,10,27,16.50
2010,06,12,10,28,16.60
2010,06,12,10,29,16.70
2010,06,12,10,30,16.70
2010,06,12,10,31,16.80
2010,06,12,10,32,16.90
2010,06,12,10,33,17.00
2010,06,12,10,34,17.10
2010,06,12,10,35,17.20
2010,06,12,10,36,17.30
2010,06,12,10,37,17.30
2010,06,12,10,38,17.50
2010,06,12,10,39,17.60
2010,06,12,10,40,17.70
2010,06,12,10,41,17.90
2010,06,12,10,42,18.00
2010,06,12,10,43,18.20
2010,06,12,10,44,18.30
2010,06,12,10,45,18.30
2010,06,12,10,46,18.40
2010,06,12,10,47,18.50
2010,06,12,10,48,18.60
2010,06,12,10,49,18.50
2010,06,12,10,50,18.50
2010,06,12,10,51,18.50
2010,06,12,10,52,18.40
2010,06,12,10,53,18.40
2010,06,12,10,54,18.40
2010,06,12,10,55,18.40
2010,06,12,10,56,18.40
2010,06,12,10,57,18.40
2010,06,12,10,58,18.40
2010,06,12,10,59,18.40
2010,06,12,11,00,18.50
2010,06,12,11,01,18.60
2010,06,12,11,02,18.60
2010,06,12,11,03,18.60
2010,06,12,11,04,18.60
2010,06,12,11,05,18.60
2010,06,12,11,06,18.50
2010,06,12,11,07,18.40
2010,06,12,11,08,18.30
2010,06,12,11,09,18.30
2010,06,12,11,10,18.20
2010,06,12,11,11,18.10
2010,06,12,11,12,18.10
2010,06,12,11,13,18.00
2010,06,12,11,14,17.90
2010,06,12,11,15,17.90
2010,06,12,11,16,17.90
2010,06,12,11,17,17.80
2010,06,12,11,18,17.80
2010,06,12,11,19,17.80
2010,06,12,11,20,17.80
2010,06,12,11,21,17.90
2010,06,12,11,22,17.90
2010,06,12,11,23,18.00
2010,06,12,11,24,18.10
2010,06,12,11,25,18.20
2010,06,12,11,26,18.30
2010,06,12,11,27,18.40
2010,06,12,11,28,18.50
2010,06,12,11,29,18.60
2010,06,12,11,30,18.60
2010,06,12,11,31,18.50
2010,06,12,11,32,18.40
2010,06,12,11,33,18.40
2010,06,12,11,34,18.40
2010,06,12,11,35,18.40
2010,06,12,11,36,18.30
2010,06,12,11,37,18.40
2010,06,12,11,38,18.30
2010,06,12,11,39,18.40
2010,06,12,11,40,18.40
2010,06,12,11,41,18.50
2010,06,12,11,42,18.50
2010,06,12,11,43,18.50
2010,06,12,11,44,18.40
2010,06,12,11,45,18.30
2010,06,12,11,46,18.20
2010,06,12,11,47,18.20
2010,06,12,11,48,18.10
2010,06,12,11,49,18.00
2010,06,12,11,50,17.90
2010,06,12,11,51,17.90
2010,06,12,11,52,17.80
2010,06,12,11,53,17.80
2010,06,12,11,54,17.80
2010,06,12,11,55,17.80
2010,06,12,11,56,17.80
2010,06,12,11,57,17.90
2010,06,12,11,58,18.00
2010,06,12,11,59,18.10
2010,06,12,12,00,18.20
2010,06,12,12,01,18.30
2010,06,12,12,02,18.30
2010,06,12,12,03,18.30
2010,06,12,12,04,18.30
2010,06,12,12,05,18.30
2010,06,12,12,06,18.40
2010,06,12,12,07,18.40
2010,06,12,12,08,18.50
2010,06,12,12,09,18.60
2010,06,12,12,10,18.70
2010,06,12,12,11,18.80
2010,06,12,12,12,18.80
2010,06,12,12,13,18.80
2010,06,12,12,14,18.90
2010,06,12,12,15,18.90
2010,06,12,12,16,18.90
2010,06,12,12,17,18.80
2010,06,12,12,18,18.80
2010,06,12,12,19,18.80
2010,06,12,12,20,18.90
2010,06,12,12,21,18.90
2010,06,12,12,22,19.00
2010,06,12,12,23,19.10
2010,06,12,12,24,19.20
2010,06,12,12,25,19.30
2010,06,12,12,26,19.30
2010,06,12,12,27,19.40
2010,06,12,12,28,19.40
2010,06,12,12,29,19.40
2010,06,12,12,30,19.30
2010,06,12,12,31,19.20
2010,06,12,12,32,19.10
2010,06,12,12,33,19.10
2010,06,12,12,34,19.10
2010,06,12,12,35,19.10
2010,06,12,12,36,19.20
2010,06,12,12,37,19.20
2010,06,12,12,38,19.30
2010,06,12,12,39,19.30
2010,06,12,12,40,19.40
2010,06,12,12,41,19.50
2010,06,12,12,42,19.60
2010,06,12,12,43,19.70
2010,06,12,12,44,19.80
2010,06,12,12,45,19.90
2010,06,12,12,46,19.90
2010,06,12,12,47,19.90
2010,06,12,12,48,19.90
2010,06,12,12,49,20.00
2010,06,12,12,50,20.00
2010,06,12,12,51,20.00
2010,06,12,12,52,20.00
2010,06,12,12,53,19.80
2010,06,12,12,54,19.80
2010,06,12,12,55,19.70
2010,06,12,12,56,19.60
2010,06,12,12,57,19.60
2010,06,12,12,58,19.50
2010,06,12,12,59,19.50
2010,06,12,13,00,19.50
2010,06,12,13,01,19.50
2010,06,12,13,02,19.60
2010,06,12,13,03,19.60
2010,06,12,13,04,19.70
2010,06,12,13,05,19.70
2010,06,12,13,06,19.80
2010,06,12,13,07,19.80
2010,06,12,13,08,19.90
2010,06,12,13,09,20.00
2010,06,12,13,10,20.10
2010,06,12,13,11,20.20
2010,06,12,13,12,20.20
2010,06,12,13,13,20.20
2010,06,12,13,14,20.20
2010,06,12,13,15,20.10
2010,06,12,13,16,20.10
2010,06,12,13,17,20.10
2010,06,12,13,18,20.10
2010,06,12,13,19,20.10
2010,06,12,13,20,20.10
2010,06,12,13,21,20.10
2010,06,12,13,22,20.00
2010,06,12,13,23,20.00
2010,06,12,13,24,20.00
2010,06,12,13,25,20.00
2010,06,12,13,26,20.10
2010,06,12,13,27,20.10
2010,06,12,13,28,20.00
2010,06,12,13,29,19.90
2010,06,12,13,30,19.90
2010,06,12,13,31,19.90
2010,06,12,13,32,19.80
2010,06,12,13,33,19.90
2010,06,12,13,34,19.90
2010,06,12,13,35,20.00
2010,06,12,13,36,20.00
2010,06,12,13,37,20.20
2010,06,12,13,38,20.20
2010,06,12,13,39,20.20
2010,06,12,13,40,20.20
2010,06,12,13,41,20.10
2010,06,12,13,42,20.00
2010,06,12,13,43,19.90
2010,06,12,13,44,19.80
2010,06,12,13,45,19.80
2010,06,12,13,46,19.80
2010,06,12,13,47,19.90
2010,06,12,13,48,20.00
2010,06,12,13,49,20.10
2010,06,12,13,50,20.20
2010,06,12,13,51,20.20
2010,06,12,13,52,20.20
2010,06,12,13,53,20.30
2010,06,12,13,54,20.20
2010,06,12,13,55,20.20
2010,06,12,13,56,20.10
2010,06,12,13,57,20.20
2010,06,12,13,58,20.20
2010,06,12,13,59,20.20
2010,06,12,14,00,20.20
2010,06,12,14,01,20.20
2010,06,12,14,02,20.30
2010,06,12,14,03,20.40
2010,06,12,14,04,20.50
2010,06,12,14,05,20.60
2010,06,12,14,06,20.60
2010,06,12,14,07,20.60
2010,06,12,14,08,20.60
2010,06,12,14,09,20.60
2010,06,12,14,10,20.60
2010,06,12,14,11,20.70
2010,06,12,14,12,20.70
2010,06,12,14,13,20.70
2010,06,12,14,14,20.80
2010,06,12,14,15,20.80
2010,06,12,14,16,20.90
2010,06,12,14,17,20.90
2010,06,12,14,18,21.00
2010,06,12,14,19,21.00
2010,06,12,14,20,21.00
2010,06,12,14,21,20.90
2010,06,12,14,22,20.90
2010,06,12,14,23,21.00
2010,06,12,14,24,21.00
2010,06,12,14,25,21.10
2010,06,12,14,26,21.00
2010,06,12,14,27,20.90
2010,06,12,14,28,20.80
2010,06,12,14,29,20.70
2010,06,12,14,30,20.50
2010,06,12,14,31,20.50
2010,06,12,14,32,20.40
2010,06,12,14,33,20.40
2010,06,12,14,34,20.40
2010,06,12,14,35,20.40
2010,06,12,14,36,20.50
2010,06,12,14,37,20.50
2010,06,12,14,38,20.40
2010,06,12,14,39,20.40
2010,06,12,14,40,20.40
2010,06,12,14,41,20.30
2010,06,12,14,42,20.20
2010,06,12,14,43,20.10
2010,06,12,14,44,20.00
2010,06,12,14,45,19.90
2010,06,12,14,46,19.80
2010,06,12,14,47,19.70
2010,06,12,14,48,19.60
2010,06,12,14,49,19.60
2010,06,12,14,50,19.50
2010,06,12,14,51,19.40
2010,06,12,14,52,19.40
2010,06,12,14,53,19.50
2010,06,12,14,54,19.60
2010,06,12,14,55,19.70
2010,06,12,14,56,19.80
2010,06,12,14,57,19.90
2010,06,12,14,58,19.90
2010,06,12,14,59,20.00
2010,06,12,15,00,20.10
2010,06,12,15,01,20.10
2010,06,12,15,02,20.20
2010,06,12,15,03,20.20
2010,06,12,15,04,20.20
2010,06,12,15,05,20.20
2010,06,12,15,06,20.20
2010,06,12,15,07,20.10
2010,06,12,15,08,20.10
2010,06,12,15,09,20.00
2010,06,12,15,10,19.90
2010,06,12,15,11,19.80
2010,06,12,15,12,19.70
2010,06,12,15,13,19.70
2010,06,12,15,14,19.70
2010,06,12,15,15,19.70
2010,06,12,15,16,19.80
2010,06,12,15,17,19.70
2010,06,12,15,18,19.60
2010,06,12,15,19,19.50
2010,06,12,15,20,19.40
2010,06,12,15,21,19.40
2010,06,12,15,22,19.30
2010,06,12,15,23,19.30
2010,06,12,15,24,19.30
2010,06,12,15,25,19.30
2010,06,12,15,26,19.30
2010,06,12,15,27,19.30
2010,06,12,15,28,19.30
2010,06,12,15,29,19.30
2010,06,12,15,30,19.40
2010,06,12,15,31,19.40
2010,06,12,15,32,19.50
2010,06,12,15,33,19.60
2010,06,12,15,34,19.60
2010,06,12,15,35,19.70
2010,06,12,15,36,19.80
2010,06,12,15,37,19.80
2010,06,12,15,38,19.80
2010,06,12,15,39,19.90
2010,06,12,15,40,19.90
2010,06,12,15,41,19.90
2010,06,12,15,42,19.90
2010,06,12,15,43,19.80
2010,06,12,15,44,19.80
2010,06,12,15,45,19.70
2010,06,12,15,46,19.60
2010,06,12,15,47,19.50
2010,06,12,15,48,19.40
2010,06,12,15,49,19.30
2010,06,12,15,50,19.20
2010,06,12,15,51,19.10
2010,06,12,15,52,19.00
2010,06,12,15,53,18.90
2010,06,12,15,54,18.80
2010,06,12,15,55,18.70
2010,06,12,15,56,18.70
2010,06,12,15,57,18.70
2010,06,12,15,58,18.60
2010,06,12,15,59,18.60
2010,06,12,16,00,18.70
2010,06,12,16,01,18.80
2010,06,12,16,02,18.90
2010,06,12,16,03,19.00
2010,06,12,16,04,19.20
2010,06,12,16,05,19.40
2010,06,12,16,06,19.50
2010,06,12,16,07,19.70
2010,06,12,16,08,19.80
2010,06,12,16,09,20.00
2010,06,12,16,10,20.10
2010,06,12,16,11,20.10
2010,06,12,16,12,20.20
2010,06,12,16,13,20.30
2010,06,12,16,14,20.30
2010,06,12,16,15,20.30
2010,06,12,16,16,20.40
2010,06,12,16,17,20.40
2010,06,12,16,18,20.50
2010,06,12,16,19,20.50
2010,06,12,16,20,20.50
2010,06,12,16,21,20.40
2010,06,12,16,22,20.40
2010,06,12,16,23,20.40
2010,06,12,16,24,20.40
2010,06,12,16,25,20.40
2010,06,12,16,26,20.40
2010,06,12,16,27,20.50
2010,06,12,16,28,20.50
2010,06,12,16,29,20.60
2010,06,12,16,30,20.70
2010,06,12,16,31,20.80
2010,06,12,16,32,20.80
2010,06,12,16,33,20.80
2010,06,12,16,34,20.80
2010,06,12,16,35,20.70
2010,06,12,16,36,20.70
2010,06,12,16,37,20.70
2010,06,12,16,38,20.70
2010,06,12,16,39,20.70
2010,06,12,16,40,20.80
2010,06,12,16,41,20.80
2010,06,12,16,42,20.90
2010,06,12,16,43,21.00
2010,06,12,16,44,21.10
2010,06,12,16,45,21.10
2010,06,12,16,46,21.00
2010,06,12,16,47,21.00
2010,06,12,16,48,21.00
2010,06,12,16,49,20.90
2010,06,12,16,50,20.90
2010,06,12,16,51,20.90
2010,06,12,16,52,20.90
2010,06,12,16,53,20.90
2010,06,12,16,54,20.90
2010,06,12,16,55,20.90
2010,06,12,16,56,20.90
2010,06,12,16,57,20.90
2010,06,12,16,58,20.90
2010,06,12,16,59,20.80
2010,06,12,17,00,20.80
2010,06,12,17,01,20.80
2010,06,12,17,02,20.70
2010,06,12,17,03,20.70
2010,06,12,17,04,20.70
2010,06,12,17,05,20.60
2010,06,12,17,06,20.60
2010,06,12,17,07,20.60
2010,06,12,17,08,20.60
2010,06,12,17,09,20.70
2010,06,12,17,10,20.70
2010,06,12,17,11,20.80
2010,06,12,17,12,20.90
2010,06,12,17,13,20.90
2010,06,12,17,14,21.00
2010,06,12,17,15,21.00
2010,06,12,17,16,21.10
2010,06,12,17,17,21.10
2010,06,12,17,18,21.10
2010,06,12,17,19,21.10
2010,06,12,17,20,21.10
2010,06,12,17,21,21.10
2010,06,12,17,22,21.00
2010,06,12,17,23,20.90
2010,06,12,17,24,20.90
2010,06,12,17,25,20.90
2010,06,12,17,26,20.90
2010,06,12,17,27,21.00
2010,06,12,17,28,21.10
2010,06,12,17,29,21.10
2010,06,12,17,30,21.20
2010,06,12,17,31,21.30
2010,06,12,17,32,21.40
2010,06,12,17,33,21.50
2010,06,12,17,34,21.60
2010,06,12,17,35,21.60
2010,06,12,17,36,21.70
2010,06,12,17,37,21.80
2010,06,12,17,38,21.80
2010,06,12,17,39,21.80